Find NOAA 9

NORAD ID: 15427 Int'l Des: 1984-123 Owner: NOAA Country: US operational
LEOCIRCULARRETROGRADESSO

Live Position

Loading 3D Globe...

About NOAA 9

Description loading...

Upcoming Passes

Passes for default location (London). Set your location on the main map for personalized predictions.

Altitude History

Loading altitude history...

Two-Line Element Set

1 15427U 84123A 26110.36583014 .00000046 00000-0 46185-4 0 9995
2 15427 99.1042 135.6514 0015213 150.4247 221.2158 14.17052118135231
Epoch: Apr 20, 2026 • Age: 17 hours

Current Status

Altitude 847.0 km
Velocity 7.42 km/s
Sub-Earth Point 2.49°N, 98.44°W
Launch Date Dec 12, 1984
Age 41.3 years
Type weather

Technical Details

Classification Payload
Mass 1030.00 kg
Dry Mass 1030.00 kg
Total Mass 1712.00 kg
Length 4.20 m
Diameter 1.90 m
Span 8.00 m
Shape Box + Pan
Manufacturer RCA
Bus Type ATN
Phase Status In Orbit
Owner/State NOAA/US

Most Searched